2016-06-21 00:01:52 r, 18.19m,0000000004Hz,0000097934c,0000000.213s, 033.1C,00002195
2016-06-21 00:11:55 r, 18.20m,0000000005Hz,0000099090c,0000000.215s, 032.8C,00002195
2016-06-21 00:21:52 r, 18.22m,0000000005Hz,0000100659c,0000000.218s, 032.5C,00002195
2016-06-21 00:31:52 r, 18.20m,0000000005Hz,0000098877c,0000000.215s, 032.5C,00002195
2016-06-21 00:41:52 r, 18.19m,0000000005Hz,0000097979c,0000000.213s, 032.5C,00002195
2016-06-21 00:51:52 r, 18.19m,0000000005Hz,0000097752c,0000000.212s, 032.2C,00002195
2016-06-21 01:01:52 r, 18.19m,0000000005Hz,0000097742c,0000000.212s, 031.9C,00002195
2016-06-21 01:11:52 r, 18.18m,0000000005Hz,0000096949c,0000000.210s, 031.9C,00002195
2016-06-21 01:21:52 r, 18.17m,0000000004Hz,0000095754c,0000000.208s, 031.5C,00002195
2016-06-21 01:31:54 r, 18.15m,0000000005Hz,0000094963c,0000000.206s, 031.2C,00002195
2016-06-21 01:41:52 r, 18.15m,0000000005Hz,0000094994c,0000000.206s, 031.2C,00002195
2016-06-21 01:51:53 r, 18.15m,0000000005Hz,0000094257c,0000000.205s, 030.9C,00002195
2016-06-21 02:01:53 r, 18.16m,0000000005Hz,0000095338c,0000000.207s, 030.9C,00002195
2016-06-21 02:11:52 r, 18.16m,0000000005Hz,0000095827c,0000000.208s, 030.9C,00002195
2016-06-21 02:21:53 r, 18.16m,0000000005Hz,0000096018c,0000000.208s, 030.9C,00002195
2016-06-21 02:31:53 r, 18.16m,0000000005Hz,0000096055c,0000000.208s, 030.6C,00002195
2016-06-21 02:41:52 r, 18.18m,0000000005Hz,0000096951c,0000000.210s, 030.6C,00002195
2016-06-21 02:51:52 r, 18.16m,0000000004Hz,0000096039c,0000000.208s, 030.2C,00002195
2016-06-21 03:01:53 r, 18.16m,0000000005Hz,0000095238c,0000000.207s, 030.2C,00002195
2016-06-21 03:11:52 r, 18.13m,0000000005Hz,0000093185c,0000000.202s, 029.9C,00002195
2016-06-21 03:21:52 r, 18.08m,0000000005Hz,0000089344c,0000000.194s, 029.6C,00002195
2016-06-21 03:31:52 r, 18.00m,0000000006Hz,0000082546c,0000000.179s, 029.3C,00002195
2016-06-21 03:41:52 r, 17.83m,0000000007Hz,0000071036c,0000000.154s, 029.0C,00002195
2016-06-21 03:51:52 r, 17.54m,0000000009Hz,0000053813c,0000000.117s, 029.0C,00002195
2016-06-21 04:01:53 r, 16.99m,0000000014Hz,0000032682c,0000000.071s, 028.6C,00002195
2016-06-21 04:11:52 r, 16.21m,0000000028Hz,0000015839c,0000000.034s, 028.6C,00002195
2016-06-21 04:21:54 r, 15.20m,0000000073Hz,0000006248c,0000000.014s, 028.6C,00002195
2016-06-21 04:31:52 r, 13.83m,0000000262Hz,0000000000c,0000000.000s, 028.6C,00002195
2016-06-21 04:41:52 r, 12.35m,0000001023Hz,0000000000c,0000000.000s, 028.6C,00002195
2016-06-21 04:51:53 r, 10.90m,0000003874Hz,0000000000c,0000000.000s, 028.6C,00002195
2016-06-21 05:01:53 r, 09.58m,0000013155Hz,0000000000c,0000000.000s, 028.6C,00002195
2016-06-21 05:11:52 r, 08.41m,0000038812Hz,0000000000c,0000000.000s, 028.3C,00002195
2016-06-21 05:21:52 r, 07.54m,0000085705Hz,0000000000c,0000000.000s, 028.3C,00002195
2016-06-21 05:31:53 r, 06.91m,0000154007Hz,0000000000c,0000000.000s, 028.3C,00002195
2016-06-21 05:41:52 r, 06.41m,0000243502Hz,0000000000c,0000000.000s, 028.6C,00002195
2016-06-21 05:51:52 r, 06.09m,0000326611Hz,0000000000c,0000000.000s, 028.6C,00002195
2016-06-21 06:01:53 r, 00.00m,0000430707Hz,0000000000c,0000000.000s, 028.6C,00002195
2016-06-21 06:11:53 r, 00.00m,0000533835Hz,0000000000c,0000000.000s, 028.6C,00002195
2016-06-21 06:21:52 r, 00.00m,0000563943Hz,0000000000c,0000000.000s, 028.6C,00002195
2016-06-21 06:31:54 r, 00.00m,0000564009Hz,0000000000c,0000000.000s, 029.0C,00002195
2016-06-21 06:41:52 r, 00.00m,0000563941Hz,0000000000c,0000000.000s, 028.6C,00002195
2016-06-21 06:51:53 r, 00.00m,0000563979Hz,0000000000c,0000000.000s, 029.0C,00002195
2016-06-21 07:01:52 r, 00.00m,0000564059Hz,0000000000c,0000000.000s, 029.3C,00002195
2016-06-21 07:11:52 r, 00.00m,0000564023Hz,0000000000c,0000000.000s, 029.6C,00002195
2016-06-21 07:21:53 r, 00.00m,0000564165Hz,0000000000c,0000000.000s, 029.9C,00002195
2016-06-21 07:31:53 r, 00.00m,0000564191Hz,0000000000c,0000000.000s, 030.2C,00002195
2016-06-21 07:41:52 r, 00.00m,0000564250Hz,0000000000c,0000000.000s, 030.9C,00002195
2016-06-21 07:51:55 r, 00.00m,0000564229Hz,0000000000c,0000000.000s, 031.2C,00002195
2016-06-21 08:01:52 r, 00.00m,0000564177Hz,0000000000c,0000000.000s, 031.5C,00002195
2016-06-21 08:11:52 r, 00.00m,0000564243Hz,0000000000c,0000000.000s, 031.9C,00002195
2016-06-21 08:21:53 r, 00.00m,0000564283Hz,0000000000c,0000000.000s, 032.2C,00002195
2016-06-21 08:31:54 r, 00.00m,0000564399Hz,0000000000c,0000000.000s, 032.8C,00002195
2016-06-21 08:41:52 r, 00.00m,0000564307Hz,0000000000c,0000000.000s, 033.1C,00002195
2016-06-21 08:51:52 r, 00.00m,0000564419Hz,0000000000c,0000000.000s, 033.1C,00002195
2016-06-21 09:01:53 r, 00.00m,0000564475Hz,0000000000c,0000000.000s, 033.8C,00002195
2016-06-21 09:11:52 r, 00.00m,0000564764Hz,0000000000c,0000000.000s, 035.7C,00002195
2016-06-21 09:21:52 r, 00.00m,0000565063Hz,0000000000c,0000000.000s, 038.6C,00002195
2016-06-21 09:31:52 r, 00.00m,0000565238Hz,0000000000c,0000000.000s, 040.9C,00002195
2016-06-21 09:41:52 r, 00.00m,0000565349Hz,0000000000c,0000000.000s, 042.5C,00002195
2016-06-21 09:51:54 r, 00.00m,0000565437Hz,0000000000c,0000000.000s, 043.5C,00002195
2016-06-21 10:01:52 r, 00.00m,0000565467Hz,0000000000c,0000000.000s, 044.4C,00002195
2016-06-21 10:11:53 r, 00.00m,0000565544Hz,0000000000c,0000000.000s, 045.1C,00002195
2016-06-21 10:21:55 r, 00.00m,0000565627Hz,0000000000c,0000000.000s, 045.7C,00002195
2016-06-21 10:31:53 r, 00.00m,0000565562Hz,0000000000c,0000000.000s, 046.4C,00002195
2016-06-21 10:41:53 r, 00.00m,0000565624Hz,0000000000c,0000000.000s, 046.4C,00002195
2016-06-21 10:51:53 r, 00.00m,0000565600Hz,0000000000c,0000000.000s, 046.7C,00002195
2016-06-21 11:01:54 r, 00.00m,0000565675Hz,0000000000c,0000000.000s, 047.0C,00002195
2016-06-21 11:11:53 r, 00.00m,0000565769Hz,0000000000c,0000000.000s, 047.3C,00002195
2016-06-21 11:21:53 r, 00.00m,0000565749Hz,0000000000c,0000000.000s, 047.7C,00002195
2016-06-21 11:31:55 r, 00.00m,0000565836Hz,0000000000c,0000000.000s, 048.0C,00002195
2016-06-21 11:41:53 r, 00.00m,0000565820Hz,0000000000c,0000000.000s, 048.6C,00002195
2016-06-21 11:51:53 r, 00.00m,0000565871Hz,0000000000c,0000000.000s, 048.9C,00002195
2016-06-21 12:01:53 r, 00.00m,0000565799Hz,0000000000c,0000000.000s, 049.6C,00002195
2016-06-21 12:11:53 r, 00.00m,0000565920Hz,0000000000c,0000000.000s, 049.9C,00002195
2016-06-21 12:21:53 r, 00.00m,0000565889Hz,0000000000c,0000000.000s, 049.9C,00002195
2016-06-21 12:31:53 r, 00.00m,0000565906Hz,0000000000c,0000000.000s, 049.9C,00002195
2016-06-21 12:41:53 r, 00.00m,0000565948Hz,0000000000c,0000000.000s, 050.2C,00002195
2016-06-21 12:51:53 r, 00.00m,0000565950Hz,0000000000c,0000000.000s, 050.6C,00002195
2016-06-21 13:01:53 r, 00.00m,0000565982Hz,0000000000c,0000000.000s, 050.9C,00002195
2016-06-21 13:11:53 r, 00.00m,0000566039Hz,0000000000c,0000000.000s, 051.5C,00002195
2016-06-21 13:21:53 r, 00.00m,0000566002Hz,0000000000c,0000000.000s, 052.2C,00002195
2016-06-21 13:31:53 r, 00.00m,0000565982Hz,0000000000c,0000000.000s, 052.5C,00002195
2016-06-21 13:41:53 r, 00.00m,0000566020Hz,0000000000c,0000000.000s, 052.8C,00002195
2016-06-21 13:51:53 r, 00.00m,0000565906Hz,0000000000c,0000000.000s, 052.8C,00002195
2016-06-21 14:01:53 r, 00.00m,0000566007Hz,0000000000c,0000000.000s, 053.1C,00002195
2016-06-21 14:11:53 r, 00.00m,0000565976Hz,0000000000c,0000000.000s, 053.1C,00002195
2016-06-21 14:21:53 r, 00.00m,0000565887Hz,0000000000c,0000000.000s, 053.5C,00002195
2016-06-21 14:31:54 r, 00.00m,0000566011Hz,0000000000c,0000000.000s, 053.5C,00002195
2016-06-21 14:41:53 r, 00.00m,0000565975Hz,0000000000c,0000000.000s, 053.8C,00002195
2016-06-21 14:51:53 r, 00.00m,0000565964Hz,0000000000c,0000000.000s, 053.8C,00002195
2016-06-21 15:01:53 r, 00.00m,0000566009Hz,0000000000c,0000000.000s, 054.1C,00002195
2016-06-21 15:11:53 r, 00.00m,0000566024Hz,0000000000c,0000000.000s, 053.8C,00002195
2016-06-21 15:21:53 r, 00.00m,0000565929Hz,0000000000c,0000000.000s, 053.8C,00002195
2016-06-21 15:31:53 r, 00.00m,0000565920Hz,0000000000c,0000000.000s, 053.5C,00002195
2016-06-21 15:41:53 r, 00.00m,0000565934Hz,0000000000c,0000000.000s, 053.8C,00002195
2016-06-21 15:51:53 r, 00.00m,0000565920Hz,0000000000c,0000000.000s, 053.8C,00002195
2016-06-21 16:01:54 r, 00.00m,0000565925Hz,0000000000c,0000000.000s, 053.8C,00002195
2016-06-21 16:11:53 r, 00.00m,0000565911Hz,0000000000c,0000000.000s, 053.5C,00002195
2016-06-21 16:21:53 r, 00.00m,0000565844Hz,0000000000c,0000000.000s, 053.1C,00002195
2016-06-21 16:31:55 r, 00.00m,0000565892Hz,0000000000c,0000000.000s, 053.1C,00002195
2016-06-21 16:41:53 r, 00.00m,0000565862Hz,0000000000c,0000000.000s, 053.1C,00002195
2016-06-21 16:51:53 r, 00.00m,0000565766Hz,0000000000c,0000000.000s, 052.8C,00002195
2016-06-21 17:01:54 r, 00.00m,0000565843Hz,0000000000c,0000000.000s, 052.8C,00002195
2016-06-21 17:11:53 r, 00.00m,0000565769Hz,0000000000c,0000000.000s, 052.5C,00002195
2016-06-21 17:21:53 r, 00.00m,0000565762Hz,0000000000c,0000000.000s, 051.8C,00002195
2016-06-21 17:31:54 r, 00.00m,0000565685Hz,0000000000c,0000000.000s, 051.5C,00002195
2016-06-21 17:41:53 r, 00.00m,0000565714Hz,0000000000c,0000000.000s, 050.9C,00002195
2016-06-21 17:51:53 r, 00.00m,0000565682Hz,0000000000c,0000000.000s, 051.2C,00002195
2016-06-21 18:01:53 r, 00.00m,0000565659Hz,0000000000c,0000000.000s, 050.9C,00002195
2016-06-21 18:11:53 r, 00.00m,0000565598Hz,0000000000c,0000000.000s, 050.6C,00002195
2016-06-21 18:21:53 r, 00.00m,0000565533Hz,0000000000c,0000000.000s, 049.9C,00002195
2016-06-21 18:31:53 r, 00.00m,0000565565Hz,0000000000c,0000000.000s, 049.3C,00002195
2016-06-21 18:41:53 r, 00.00m,0000565489Hz,0000000000c,0000000.000s, 048.6C,00002195
2016-06-21 18:51:53 r, 00.00m,0000565299Hz,0000000000c,0000000.000s, 047.7C,00002195
2016-06-21 19:01:53 r, 00.00m,0000565333Hz,0000000000c,0000000.000s, 046.7C,00002195
2016-06-21 19:11:54 r, 00.00m,0000565248Hz,0000000000c,0000000.000s, 046.4C,00002195
2016-06-21 19:21:53 r, 00.00m,0000565171Hz,0000000000c,0000000.000s, 044.8C,00002195
2016-06-21 19:31:54 r, 00.00m,0000565097Hz,0000000000c,0000000.000s, 043.5C,00002195
2016-06-21 19:41:53 r, 00.00m,0000565009Hz,0000000000c,0000000.000s, 043.5C,00002195
2016-06-21 19:51:53 r, 00.00m,0000564949Hz,0000000000c,0000000.000s, 042.5C,00002195
2016-06-21 20:01:53 r, 00.00m,0000564902Hz,0000000000c,0000000.000s, 041.5C,00002195
2016-06-21 20:11:53 r, 00.00m,0000564889Hz,0000000000c,0000000.000s, 041.5C,00002195
2016-06-21 20:21:53 r, 00.00m,0000564775Hz,0000000000c,0000000.000s, 040.9C,00002195
2016-06-21 20:31:53 r, 00.00m,0000564684Hz,0000000000c,0000000.000s, 039.6C,00002195
2016-06-21 20:41:53 r, 00.00m,0000498409Hz,0000000000c,0000000.000s, 038.6C,00002195
2016-06-21 20:51:54 r, 00.00m,0000478300Hz,0000000000c,0000000.000s, 037.3C,00002195
2016-06-21 21:01:53 r, 06.11m,0000321955Hz,0000000000c,0000000.000s, 036.7C,00002195
2016-06-21 21:11:54 r, 05.94m,0000375897Hz,0000000000c,0000000.000s, 036.4C,00002195
2016-06-21 21:21:53 r, 06.47m,0000229221Hz,0000000000c,0000000.000s, 036.0C,00002195
2016-06-21 21:31:53 r, 07.20m,0000117016Hz,0000000000c,0000000.000s, 035.4C,00002195
2016-06-21 21:41:53 r, 07.96m,0000057892Hz,0000000000c,0000000.000s, 034.8C,00002195
2016-06-21 21:51:53 r, 08.83m,0000026246Hz,0000000000c,0000000.000s, 034.4C,00002195
2016-06-21 22:01:53 r, 10.01m,0000008866Hz,0000000000c,0000000.000s, 034.1C,00002195
2016-06-21 22:11:53 r, 11.39m,0000002489Hz,0000000000c,0000000.000s, 033.8C,00002195
2016-06-21 22:21:53 r, 12.90m,0000000617Hz,0000000000c,0000000.000s, 033.5C,00002195
2016-06-21 22:31:53 r, 14.39m,0000000156Hz,0000000000c,0000000.000s, 033.1C,00002195
2016-06-21 22:41:53 r, 15.73m,0000000045Hz,0000010185c,0000000.022s, 032.8C,00002195
2016-06-21 22:51:53 r, 16.53m,0000000021Hz,0000021425c,0000000.046s, 032.5C,00002195
2016-06-21 23:01:53 r, 17.35m,0000000010Hz,0000045076c,0000000.098s, 032.5C,00002195
2016-06-21 23:11:53 r, 17.07m,0000000013Hz,0000035059c,0000000.076s, 031.9C,00002195
2016-06-21 23:21:53 r, 17.26m,0000000011Hz,0000041568c,0000000.090s, 031.9C,00002195
2016-06-21 23:31:54 r, 17.46m,0000000009Hz,0000050060c,0000000.109s, 032.2C,00002195
2016-06-21 23:41:53 r, 17.61m,0000000008Hz,0000057530c,0000000.125s, 032.2C,00002195
2016-06-21 23:51:53 r, 17.76m,0000000007Hz,0000065850c,0000000.143s, 032.2C,00002195
